| time (UTC) | temp F | wind direction | speed MPH | gust MPH | rain 1hr in | rain 24hr in | rain mn in | humidity % | barometer mb |
| 20260507234528 | 74 | 69 | 0.0 | 0.0 | 0.00 | 0.25 | 0.00 | 96 | 1007.2 |
| 20260507233039 | 74 | 69 | 0.0 | 1.0 | 0.00 | 0.25 | 0.00 | 96 | 1007.1 |
| 20260507231534 | 74 | 69 | 0.0 | 0.0 | 0.00 | 0.25 | 0.00 | 96 | 1006.9 |
| 20260507230027 | 74 | 68 | 0.0 | 0.0 | 0.00 | 0.25 | 0.00 | 96 | 1006.6 |
| 20260507224531 | 74 | 69 | 0.0 | 1.0 | 0.00 | 0.25 | 0.00 | 95 | 1006.3 |
| 20260507223025 | 74 | 71 | 0.0 | 1.0 | 0.00 | 0.25 | 0.00 | 95 | 1006.1 |
| 20260507221533 | 74 | 70 | 0.0 | 0.0 | 0.00 | 0.25 | 0.00 | 95 | 1006.0 |
| 20260507220024 | 74 | 70 | 0.0 | 0.0 | 0.00 | 0.25 | 0.00 | 95 | 1005.9 |
| 20260507214522 | 74 | 70 | 0.0 | 1.0 | 0.00 | 0.25 | 0.00 | 95 | 1005.8 |
| 20260507213022 | 74 | 69 | 0.0 | 1.0 | 0.00 | 0.25 | 0.00 | 95 | 1005.8 |
| 20260507211523 | 73 | 70 | 0.0 | 0.0 | 0.00 | 0.25 | 0.00 | 95 | 1005.7 |
| 20260507210019 | 74 | 70 | 0.0 | 1.0 | 0.00 | 0.25 | 0.00 | 94 | 1005.7 |
| 20260507204518 | 74 | 71 | 0.0 | 1.0 | 0.00 | 0.25 | 0.00 | 94 | 1005.7 |
| 20260507203023 | 74 | 70 | 0.0 | 3.0 | 0.00 | 0.25 | 0.00 | 94 | 1005.8 |
| 20260507201520 | 74 | 68 | 0.0 | 2.0 | 0.00 | 0.25 | 0.00 | 95 | 1005.6 |
| 20260507200016 | 73 | 69 | 0.0 | 1.0 | 0.00 | 0.25 | 0.00 | 95 | 1005.7 |
| 20260507194518 | 74 | 70 | 0.0 | 1.0 | 0.00 | 0.25 | 0.00 | 95 | 1005.8 |
| 20260507193014 | 73 | 71 | 0.0 | 3.0 | 0.00 | 0.25 | 0.00 | 95 | 1005.8 |
| 20260507191512 | 73 | 68 | 0.0 | 2.0 | 0.00 | 0.25 | 0.00 | 94 | 1005.8 |
| 20260507190010 | 73 | 69 | 0.0 | 2.0 | 0.00 | 0.25 | 0.00 | 94 | 1006.1 |
| 20260507184508 | 74 | 70 | 0.0 | 2.0 | 0.00 | 0.25 | 0.00 | 94 | 1006.6 |
| 20260507183010 | 74 | 69 | 0.0 | 1.0 | 0.00 | 0.25 | 0.00 | 94 | 1006.9 |
| 20260507181504 | 74 | 70 | 0.0 | 1.0 | 0.00 | 0.25 | 0.00 | 94 | 1007.0 |
| 20260507180004 | 74 | 67 | 0.0 | 1.0 | 0.00 | 0.25 | 0.00 | 94 | 1007.1 |
| 20260507174502 | 74 | 70 | 0.0 | 1.0 | 0.00 | 0.25 | 0.00 | 94 | 1007.3 |
| 20260507173104 | 74 | 71 | 0.0 | 1.0 | 0.01 | 0.25 | 0.00 | 94 | 1007.2 |
| 20260507171605 | 74 | 70 | 0.0 | 2.0 | 0.01 | 0.25 | 0.00 | 93 | 1007.3 |
| 20260507164601 | 75 | 149 | 2.0 | 5.0 | 0.01 | 0.25 | 0.25 | 93 | 1007.1 |
| 20260507163055 | 75 | 168 | 0.0 | 2.0 | 0.01 | 0.24 | 0.24 | 93 | 1007.5 |
| 20260507161555 | 75 | 168 | 0.0 | 2.0 | 0.02 | 0.24 | 0.24 | 93 | 1007.7 |
| 20260507160056 | 75 | 359 | 0.0 | 2.0 | 0.02 | 0.24 | 0.24 | 93 | 1007.6 |
| 20260507154558 | 75 | 165 | 1.0 | 5.0 | 0.03 | 0.24 | 0.24 | 93 | 1007.6 |
| 20260507153052 | 75 | 189 | 0.0 | 3.0 | 0.03 | 0.24 | 0.24 | 93 | 1007.6 |
| 20260507151550 | 75 | 187 | 1.0 | 4.0 | 0.06 | 0.23 | 0.23 | 93 | 1007.1 |
| 20260507150048 | 75 | 187 | 1.0 | 3.0 | 0.14 | 0.22 | 0.22 | 92 | 1006.9 |
| 20260507144546 | 75 | 359 | 1.0 | 9.0 | 0.21 | 0.21 | 0.21 | 89 | 1006.2 |
| 20260507143045 | 76 | 212 | 7.0 | 13.0 | 0.20 | 0.20 | 0.20 | 90 | 1005.9 |
| 20260507141552 | 77 | 359 | 4.0 | 8.0 | 0.17 | 0.17 | 0.17 | 86 | 1005.8 |
| 20260507140044 | 79 | 156 | 2.0 | 10.0 | 0.07 | 0.07 | 0.07 | 81 | 1005.5 |
| 20260507134544 | 81 | 125 | 9.0 | 24.0 | 0.00 | 0.00 | 0.00 | 71 | 1005.7 |
| 20260507133059 | 85 | 60 | 7.0 | 19.0 | 0.00 | 0.00 | 0.00 | 68 | 1004.9 |
| 20260507131550 | 85 | 71 | 4.0 | 8.0 | 0.00 | 0.00 | 0.00 | 71 | 1004.1 |
| 20260507130055 | 86 | 233 | 2.0 | 5.0 | 0.00 | 0.00 | 0.00 | 72 | 1003.5 |
| 20260507124541 | 87 | 253 | 2.0 | 6.0 | 0.00 | 0.00 | 0.00 | 72 | 1002.8 |
| 20260507123041 | 88 | 225 | 0.0 | 5.0 | 0.00 | 0.00 | 0.00 | 70 | 1002.4 |
| 20260507121540 | 89 | 214 | 4.0 | 9.0 | 0.00 | 0.00 | 0.00 | 69 | 1002.0 |
| 20260507120052 | 91 | 21 | 0.0 | 3.0 | 0.00 | 0.00 | 0.00 | 64 | 1000.8 |
| 20260507114612 | 90 | 22 | 0.0 | 3.0 | 0.00 | 0.00 | 0.00 | 65 | 1000.4 |
| 20260507113039 | 90 | 22 | 0.0 | 3.0 | 0.00 | 0.00 | 0.00 | 64 | 1000.3 |
| 20260507111539 | 90 | 22 | 0.0 | 1.0 | 0.00 | 0.00 | 0.00 | 65 | 1000.2 |
| 20260507110039 | 90 | 22 | 0.0 | 4.0 | 0.00 | 0.00 | 0.00 | 64 | 1000.0 |
| 20260507104538 | 90 | 22 | 0.0 | 3.0 | 0.00 | 0.00 | 0.00 | 63 | 999.8 |
| 20260507103037 | 89 | 22 | 0.0 | 4.0 | 0.00 | 0.00 | 0.00 | 65 | 999.4 |
| 20260507101542 | 89 | 18 | 1.0 | 4.0 | 0.00 | 0.00 | 0.00 | 65 | 999.3 |
| 20260507100036 | 89 | 354 | 2.0 | 5.0 | 0.00 | 0.00 | 0.00 | 65 | 999.8 |
| 20260507094534 | 88 | 344 | 2.0 | 8.0 | 0.00 | 0.00 | 0.00 | 67 | 999.9 |
| 20260507093034 | 89 | 319 | 2.0 | 9.0 | 0.00 | 0.00 | 0.00 | 65 | 999.8 |
| 20260507091542 | 91 | 312 | 6.0 | 12.0 | 0.00 | 0.00 | 0.00 | 64 | 1000.1 |
| 20260507090037 | 93 | 218 | 0.0 | 4.0 | 0.00 | 0.00 | 0.00 | 65 | 999.8 |
| 20260507084532 | 93 | 217 | 0.0 | 3.0 | 0.00 | 0.00 | 0.00 | 62 | 999.9 |
| 20260507083033 | 94 | 217 | 1.0 | 4.0 | 0.00 | 0.00 | 0.00 | 60 | 999.9 |
| 20260507081531 | 95 | 214 | 0.0 | 4.0 | 0.00 | 0.00 | 0.00 | 59 | 999.7 |
| 20260507080030 | 97 | 223 | 2.0 | 9.0 | 0.00 | 0.00 | 0.00 | 51 | 1000.0 |
| 20260507074527 | 98 | 256 | 4.0 | 8.0 | 0.00 | 0.00 | 0.00 | 54 | 1000.3 |
| 20260507073023 | 98 | 243 | 3.0 | 8.0 | 0.00 | 0.00 | 0.00 | 52 | 1000.6 |
| 20260507071521 | 98 | 216 | 3.0 | 7.0 | 0.00 | 0.00 | 0.00 | 54 | 1000.8 |
| 20260507070024 | 97 | 258 | 1.0 | 6.0 | 0.00 | 0.00 | 0.00 | 56 | 1001.3 |
| 20260507064514 | 97 | 239 | 1.0 | 3.0 | 0.00 | 0.00 | 0.00 | 53 | 1001.5 |
| 20260507063011 | 96 | 265 | 3.0 | 7.0 | 0.00 | 0.00 | 0.00 | 58 | 1001.9 |
| 20260507061508 | 96 | 233 | 2.0 | 8.0 | 0.00 | 0.00 | 0.00 | 54 | 1002.3 |
| 20260507060004 | 96 | 266 | 1.0 | 6.0 | 0.00 | 0.00 | 0.00 | 60 | 1002.7 |
| 20260507054600 | 95 | 258 | 1.0 | 7.0 | 0.00 | 0.00 | 0.00 | 60 | 1003.2 |
| 20260507053059 | 95 | 247 | 3.0 | 5.0 | 0.00 | 0.00 | 0.00 | 62 | 1003.6 |
| 20260507051553 | 95 | 283 | 1.0 | 6.0 | 0.00 | 0.00 | 0.00 | 61 | 1003.9 |
| 20260507050050 | 94 | 280 | 2.0 | 6.0 | 0.00 | 0.00 | 0.00 | 67 | 1004.2 |
| 20260507044545 | 92 | 204 | 2.0 | 6.0 | 0.00 | 0.00 | 0.00 | 68 | 1004.4 |
| 20260507043043 | 92 | 204 | 2.0 | 5.0 | 0.00 | 0.00 | 0.00 | 68 | 1004.6 |
| 20260507041540 | 91 | 185 | 1.0 | 4.0 | 0.00 | 0.00 | 0.00 | 70 | 1004.8 |
| 20260507040042 | 90 | 181 | 3.0 | 6.0 | 0.00 | 0.00 | 0.00 | 71 | 1004.9 |
| 20260507034537 | 89 | 174 | 1.0 | 5.0 | 0.00 | 0.00 | 0.00 | 72 | 1005.1 |
| 20260507033032 | 88 | 174 | 2.0 | 6.0 | 0.00 | 0.00 | 0.00 | 73 | 1005.3 |
| 20260507031530 | 87 | 174 | 3.0 | 6.0 | 0.00 | 0.00 | 0.00 | 73 | 1005.5 |
| 20260507030028 | 87 | 118 | 1.0 | 4.0 | 0.00 | 0.00 | 0.00 | 75 | 1005.7 |
| 20260507024527 | 87 | 103 | 1.0 | 7.0 | 0.00 | 0.00 | 0.00 | 76 | 1005.8 |
| 20260507023024 | 86 | 144 | 0.0 | 4.0 | 0.00 | 0.00 | 0.00 | 80 | 1006.0 |
| 20260507021523 | 84 | 145 | 1.0 | 4.0 | 0.00 | 0.00 | 0.00 | 80 | 1006.1 |
| 20260507020021 | 84 | 136 | 2.0 | 5.0 | 0.00 | 0.00 | 0.00 | 81 | 1006.2 |
| 20260507014526 | 83 | 75 | 1.0 | 4.0 | 0.00 | 0.00 | 0.00 | 81 | 1006.1 |
| 20260507013037 | 82 | 75 | 1.0 | 3.0 | 0.00 | 0.00 | 0.00 | 84 | 1006.2 |
| 20260507011514 | 81 | 74 | 0.0 | 3.0 | 0.00 | 0.00 | 0.00 | 85 | 1006.3 |
| 20260507010013 | 81 | 74 | 0.0 | 3.0 | 0.00 | 0.00 | 0.00 | 86 | 1006.1 |
| 20260507004507 | 80 | 74 | 0.0 | 3.0 | 0.00 | 0.00 | 0.00 | 88 | 1006.2 |
| 20260507003006 | 79 | 74 | 0.0 | 2.0 | 0.00 | 0.00 | 0.00 | 90 | 1006.1 |
| 20260507001509 | 78 | 74 | 0.0 | 1.0 | 0.00 | 0.00 | 0.00 | 91 | 1005.9 |
| 20260507000004 | 76 | 74 | 0.0 | 0.0 | 0.00 | 0.00 | 0.00 | 93 | 1005.9 |